Location: Newark
(23.3970°S, 47.6010°W)
Time: 11:29:31
(UTC+00:00)

Tiros 1 despin weight - Pass Details

Date: 26 February 2020
Orbit: 593 x 642 km, 48.2° (Epoch: 06 April)

Event Time Altitude Azimuth Distance (km) Brightness Sun altitude
Rises 13:26:18 0° 287° (WNW) 2,877 ? 58.4°
Reaches altitude 10° 13:28:56 10° 273° (W) 1,987 ? 59.0°
Maximum altitude 13:32:41 24° 218° (SW) 1,294 ? 59.8°
Drops below altitude 10° 13:36:30 10° 163° (SSE) 2,025 ? 60.6°
Sets 13:39:13 0° 149° (SSE) 2,945 ? 61.1°
